C/2020 K5 ( PanSTARRS )

Japanese version
Home page
Updated on July 8, 2020

---------------------------------------------------------------------

* Profile

Discovery Date May 25, 2020
Magnitude 20.7 mag
Discoverer Pan-STARRS1 1.8-m Ritchey-Chretien reflector at Haleakala

* Pictures

* Orbital Elements

Epoch 2021 May 26.0 TT = JDT 2459360.5
T 2021 June 5.49135 TT                                  Rudenko
q   1.5352350            (2000.0)            P               Q
z  -0.0012915      Peri.  249.58855     +0.33948864     +0.19791835
 +/-0.0000981      Node    86.15304     +0.00193708     +0.97746301
e   1.0019828      Incl.   67.16534     -0.94060816     +0.07344658
From 38 observations 2020 Apr. 3-June 11, mean residual 0".5.

* Finding Charts

* Magnitudes Graph

        m1 = 10.5 + 5 log d + 10.0 log r

---------------------------------------------------------------------

The orbital elements are published on M.P.E.C. 2020-M114.
The charts are made with StellaNavigator Ver.10 (AstroArts).
The magnitudes graphs are made with Comet for Windows.

---------------------------------------------------------------------

Copyright(C) Seiichi Yoshida (comet@aerith.net). All rights reserved.